TimeIST,TemperatureF,Dew PointF,Humidity,Sea Level PressureIn,VisibilityMPH,Wind Direction,Wind SpeedMPH,Gust SpeedMPH,PrecipitationIn,Events,Conditions,WindDirDegrees,DateUTC
12:00 AM,53,51,91,30.37,,NNW,6.7,,,,,340,2013-07-13 23:00:00
1:00 AM,53,51,92,30.37,,North,6.7,,,,,350,2013-07-14 00:00:00
2:00 AM,52,51,95,30.36,,NNW,2.3,,,,,340,2013-07-14 01:00:00
3:00 AM,53,52,93,30.35,,North,2.2,,,,,350,2013-07-14 02:00:00
4:00 AM,53,51,92,30.35,,North,2.2,,,,,350,2013-07-14 03:00:00
5:00 AM,53,51,92,30.34,,NNW,1.2,,,,,340,2013-07-14 04:00:00
6:00 AM,54,52,90,30.34,,Calm,Calm,,,,,,2013-07-14 05:00:00
7:00 AM,53,51,92,30.34,22,NNW,4.5,,,,Partly Cloudy,340,2013-07-14 06:00:00
7:00 AM,53.6,51.8,94,30.30,6.2,NNW,3.5,-,N/A,,Mostly Cloudy,340,2013-07-14 06:00:00
7:30 AM,55.4,51.8,88,30.30,6.2,North,1.2,-,N/A,,Mostly Cloudy,10,2013-07-14 06:30:00
8:00 AM,54,53,93,30.33,37,North,1.2,,,,Scattered Clouds,350,2013-07-14 07:00:00
8:00 AM,55.4,51.8,88,30.30,6.2,North,2.3,-,N/A,,Mostly Cloudy,350,2013-07-14 07:00:00
8:30 AM,55.4,51.8,88,30.30,6.2,North,3.5,-,N/A,,Mostly Cloudy,350,2013-07-14 07:30:00
9:00 AM,56,52,82,30.33,37,North,2.2,,,,Scattered Clouds,350,2013-07-14 08:00:00
9:00 AM,57.2,51.8,82,30.30,6.2,North,2.3,-,N/A,,Mostly Cloudy,350,2013-07-14 08:00:00
9:30 AM,57.2,51.8,82,30.33,6.2,North,3.5,-,N/A,,Mostly Cloudy,350,2013-07-14 08:30:00
10:00 AM,59,52,69,30.33,40,NW,4.5,,,,Scattered Clouds,320,2013-07-14 09:00:00
10:00 AM,59.0,51.8,77,30.30,6.2,NW,3.5,-,N/A,,Mostly Cloudy,320,2013-07-14 09:00:00
10:30 AM,60.8,50.0,68,30.33,6.2,WNW,2.3,-,N/A,,Scattered Clouds,300,2013-07-14 09:30:00
11:00 AM,62,50,54,30.32,34,WSW,2.2,,,,Scattered Clouds,250,2013-07-14 10:00:00
11:00 AM,60.8,50.0,68,30.30,6.2,WSW,2.3,-,N/A,,Mostly Cloudy,250,2013-07-14 10:00:00
11:30 AM,62.6,50.0,63,30.30,6.2,West,4.6,-,N/A,,Mostly Cloudy,270,2013-07-14 10:30:00
12:00 PM,64,49,48,30.32,34,West,4.5,,,,Scattered Clouds,270,2013-07-14 11:00:00
12:00 PM,64.4,48.2,56,30.30,6.2,West,3.5,-,N/A,,Mostly Cloudy,270,2013-07-14 11:00:00
12:30 PM,64.4,48.2,56,30.30,6.2,WSW,5.8,-,N/A,,Mostly Cloudy,250,2013-07-14 11:30:00
1:00 PM,66,47,39,30.31,40,West,4.5,,,,Scattered Clouds,270,2013-07-14 12:00:00
1:00 PM,66.2,46.4,49,30.30,6.2,West,4.6,-,N/A,,Mostly Cloudy,270,2013-07-14 12:00:00
1:30 PM,68.0,46.4,46,30.30,6.2,West,5.8,-,N/A,,Mostly Cloudy,260,2013-07-14 12:30:00
2:00 PM,68,50,41,30.29,40,WNW,3.5,,,,Scattered Clouds,300,2013-07-14 13:00:00
2:00 PM,68.0,50.0,52,30.30,6.2,WNW,5.8,-,N/A,,Mostly Cloudy,300,2013-07-14 13:00:00
2:30 PM,69.8,46.4,43,30.30,6.2,WSW,5.8,-,N/A,,Mostly Cloudy,250,2013-07-14 13:30:00
3:00 PM,70,45,30,30.28,40,West,8.9,,,,Scattered Clouds,270,2013-07-14 14:00:00
3:00 PM,69.8,44.6,40,30.30,6.2,West,8.1,-,N/A,,Mostly Cloudy,270,2013-07-14 14:00:00
3:30 PM,69.8,46.4,43,30.30,6.2,West,8.1,-,N/A,,Scattered Clouds,270,2013-07-14 14:30:00
4:00 PM,69,47,35,30.28,40,WNW,6.7,,,,Scattered Clouds,290,2013-07-14 15:00:00
4:00 PM,69.8,48.2,46,30.27,6.2,WNW,6.9,-,N/A,,Scattered Clouds,290,2013-07-14 15:00:00
4:30 PM,69.8,46.4,43,30.27,6.2,West,6.9,-,N/A,,Scattered Clouds,270,2013-07-14 15:30:00
5:00 PM,70,53,45,30.27,40,NNW,4.6,,,,Scattered Clouds,330,2013-07-14 16:00:00
5:00 PM,69.8,53.6,56,30.27,6.2,NNW,8.1,-,N/A,,Scattered Clouds,330,2013-07-14 16:00:00
5:30 PM,69.8,55.4,60,30.27,6.2,North,8.1,-,N/A,,Scattered Clouds,360,2013-07-14 16:30:00
6:00 PM,68,55,55,30.27,40,North,8.9,,,,Scattered Clouds,350,2013-07-14 17:00:00
6:00 PM,68.0,55.4,64,30.27,6.2,North,9.2,-,N/A,,Scattered Clouds,350,2013-07-14 17:00:00
6:30 PM,66.2,55.4,68,30.27,6.2,North,9.2,-,N/A,,Scattered Clouds,350,2013-07-14 17:30:00
7:00 PM,65,55,62,30.27,31,North,8.9,,,,Partly Cloudy,0,2013-07-14 18:00:00
7:00 PM,64.4,55.4,73,30.27,6.2,North,9.2,-,N/A,,Scattered Clouds,360,2013-07-14 18:00:00
8:00 PM,64,55,66,30.27,,WNW,5.8,,,,,300,2013-07-14 19:00:00
9:00 PM,62,55,71,30.28,,NW,8.9,,,,,310,2013-07-14 20:00:00
10:00 PM,59,55,82,30.29,,NW,6.7,,,,,320,2013-07-14 21:00:00
11:00 PM,57,54,87,30.30,,West,6.7,,,,,280,2013-07-14 22:00:00